Temperature
23 23 22 22 20 20 22 25 27 28 27 27 27 26 25 24 23 22 22 22 22 21 21 21 20 20 20 20 20 19 19 19 19 19 19 19 19 19 19 19 19 19 18 18 18 18 18 18 18
24 23 22 21 20 21 23 26 27 28 27 27 26 25 24 24 23 22 21 22 22 22 21 21 20 20 20 20 19 19 19 19 19 19 19 19 19 19 19 19 19 19 18 18 18 18 18 18 18
24 23 22 20 21 22 24 26 28 28 28 27 26 26 25 24 23 22 22 22 22 22 21 21 21 20 20 20 19 19 19 19 19 19 19 18 18 18 18 18 19 18 18 18 18 18 18 18 17
24 23 22 20 22 24 26 27 28 28 28 27 26 25 25 24 24 24 23 22 22 22 21 21 21 20 20 20 19 19 19 19 19 18 18 18 18 18 18 18 18 18 18 18 18 18 18 17 17
24 23 21 21 23 25 27 28 29 28 28 27 25 24 23 24 24 24 23 22 22 22 21 21 21 20 20 20 19 19 19 19 19 18 18 18 18 18 18 18 18 18 18 18 18 18 18 17 17
24 21 21 21 24 27 28 29 29 28 27 26 25 23 23 24 24 23 23 22 22 22 21 21 21 20 20 20 20 19 19 19 19 18 18 18 18 18 18 18 18 18 18 18 18 18 18 17 17
23 21 21 23 24 26 28 29 29 27 27 26 25 23 22 22 23 23 22 22 22 22 21 21 21 20 20 20 20 19 19 19 18 18 18 18 18 18 18 18 18 18 18 18 18 18 18 17 17
25 21 23 23 25 26 29 30 29 28 27 27 26 23 22 22 22 22 22 22 21 21 21 21 20 20 20 19 19 19 19 19 18 18 18 18 18 18 18 18 18 18 18 18 18 18 18 18 17
26 21 21 23 25 27 29 29 29 29 28 27 27 26 25 23 22 21 21 21 21 21 21 21 20 20 20 19 19 19 19 18 18 18 18 18 18 18 18 18 18 18 18 18 18 18 18 18 17
25 21 23 26 27 27 29 29 29 28 27 26 26 26 24 23 22 21 21 21 21 21 21 21 20 20 20 19 19 19 19 18 18 18 18 18 18 18 18 18 18 18 18 18 18 18 18 17 17
25 24 25 27 28 29 29 29 29 27 26 26 26 25 23 22 22 22 21 21 21 21 21 20 20 20 20 19 19 19 19 18 18 18 18 18 18 18 18 18 18 18 18 18 17 17 17 17 17
26 26 28 28 29 29 29 29 28 28 28 28 28 26 24 23 22 22 21 21 21 21 20 20 20 20 19 19 19 19 19 18 18 18 18 18 18 18 17 17 17 18 17 17 17 17 17 17 17
26 26 28 29 29 29 29 28 28 28 29 28 27 26 24 23 23 22 22 21 21 20 20 20 20 20 19 19 19 19 19 19 18 18 18 18 18 18 17 17 17 17 17 17 17 17 17 17 17
26 27 28 28 29 29 28 28 27 28 28 27 26 25 24 23 22 22 21 20 20 20 20 20 20 19 19 19 19 19 19 18 18 18 18 18 17 18 17 17 17 17 17 17 17 17 17 17 17
28 26 26 27 28 29 28 27 26 28 27 26 25 24 23 23 23 22 21 21 20 20 19 19 19 19 19 19 19 18 18 18 18 18 18 18 17 17 17 17 17 17 17 17 17 17 17 17 17
25 25 24 26 27 28 27 26 26 27 26 25 24 23 23 23 22 22 22 21 21 20 19 19 18 18 18 18 18 18 18 18 18 18 18 17 17 18 17 17 17 17 17 17 17 17 17 17 17
23 23 24 26 28 28 27 26 26 27 26 25 24 23 23 22 22 22 21 21 20 20 19 19 19 18 18 18 18 18 18 18 18 18 18 18 17 17 17 17 17 17 17 17 17 17 17 17 17
22 23 24 25 27 28 27 26 26 26 26 24 23 23 22 22 22 21 21 20 20 20 19 19 18 18 18 18 18 18 18 18 18 18 18 18 18 17 17 17 17 17 17 17 17 17 17 17 17
24 24 24 26 27 27 26 26 26 26 25 24 23 22 22 22 22 21 21 20 20 19 19 18 18 18 18 18 18 18 17 17 17 17 17 18 18 17 17 17 17 17 17 17 17 17 17 17 17
25 24 25 26 27 27 26 25 25 25 25 24 23 22 21 21 21 21 20 20 19 19 19 19 18 18 18 18 18 18 18 17 17 17 17 17 17 17 17 17 17 17 17 17 17 17 17 17 17
25 25 25 26 27 26 26 24 24 24 24 24 23 23 22 21 21 20 20 20 19 19 19 19 18 18 18 18 18 17 17 17 17 17 17 17 17 17 17 17 17 17 17 17 17 17 17 17 17
24 26 27 27 25 23 25 22 23 23 23 23 22 22 22 21 21 21 20 20 19 19 19 18 18 18 18 18 18 17 17 17 18 18 17 17 17 17 17 17 17 17 17 17 17 16 16 16 17
25 27 27 27 25 23 22 22 21 22 22 22 22 22 22 21 21 21 20 20 19 19 19 18 18 18 18 18 18 18 18 18 18 17 17 17 17 17 17 17 17 17 17 17 16 16 16 16 17
27 27 25 22 20 21 22 22 21 20 21 22 22 22 22 21 21 21 20 20 19 19 18 18 18 18 18 18 18 18 18 17 17 17 17 17 17 17 17 17 17 17 17 16 16 16 16 16 16
26 23 21 22 20 20 21 22 21 22 22 22 22 22 22 21 21 20 20 19 19 19 18 18 18 18 18 17 18 17 17 17 18 18 17 17 17 17 17 17 17 17 17 16 16 16 16 16 16
25 22 21 21 21 20 21 21 21 22 23 23 23 22 22 21 21 21 20 20 19 19 18 18 18 18 17 17 17 17 17 17 17 18 18 18 18 17 17 17 17 17 17 16 16 16 16 16 16
25 23 21 20 21 21 20 21 22 22 22 22 22 21 21 20 20 20 20 19 19 19 18 18 18 18 18 18 17 17 17 17 17 17 18 17 17 17 17 17 17 17 16 16 16 16 16 16 16
26 24 20 20 21 21 21 21 21 22 21 21 21 21 21 20 20 20 20 19 19 19 18 18 18 18 18 17 17 17 17 17 17 17 17 17 17 17 17 17 17 17 17 16 16 16 16 16 16
25 25 21 19 19 20 21 21 22 21 21 21 20 21 21 20 20 20 20 19 19 19 18 18 18 18 17 17 17 17 17 17 17 17 17 17 17 17 17 17 17 17 17 16 16 16 16 16 16
25 23 21 21 21 19 19 20 22 21 21 21 21 21 21 21 21 20 20 19 19 19 18 18 18 18 18 17 17 17 17 17 17 17 17 17 17 17 17 17 17 17 17 17 16 16 16 16 16
Wind_Speed
7 6 2 1 3 4 2 2 2 3 5 8 11 11 9 5 4 4 5 17 20 19 19 22 23 22 21 21 20 19 19 19 18 18 18 18 18 17 17 17 17 17 17 16 16 16 16 16 17
4 4 2 3 4 2 3 2 3 5 9 13 11 10 8 5 6 9 8 17 22 19 19 21 23 23 22 21 20 19 19 18 18 17 17 17 17 17 17 17 16 16 16 16 16 15 15 15 15
4 3 2 3 1 3 3 3 1 5 10 10 7 5 5 6 9 8 12 21 20 17 19 22 25 23 22 21 20 20 19 18 18 17 17 17 17 17 16 16 16 16 15 15 15 14 14 13 13
1 3 3 2 4 7 6 8 3 7 7 9 10 6 3 4 8 13 22 22 20 16 18 23 25 24 23 22 21 20 19 18 17 17 17 16 16 16 16 16 15 15 14 14 13 12 12 11 11
2 3 3 3 5 6 7 7 4 7 6 8 10 7 3 2 16 24 23 21 20 16 16 22 25 24 23 22 21 20 19 18 18 17 17 16 16 16 16 15 15 14 14 13 12 11 10 9 9
3 4 2 4 7 7 6 3 5 7 8 10 10 8 3 8 21 23 21 19 19 19 15 20 24 24 23 22 21 20 19 19 18 17 16 16 16 16 15 15 14 14 13 12 11 10 9 8 8
3 2 3 4 6 7 6 2 6 8 8 7 10 7 5 10 17 20 19 17 17 17 15 15 20 22 23 22 22 21 20 19 18 17 17 16 16 15 15 14 14 13 12 11 9 8 7 6 6
5 2 2 3 4 5 4 1 5 9 6 8 8 10 9 13 17 18 17 16 15 14 13 11 15 17 18 19 21 21 20 19 18 17 17 16 16 15 14 13 13 12 11 9 8 7 6 5 5
3 2 4 5 4 6 5 2 2 4 7 5 5 7 12 21 21 19 17 14 14 14 12 12 11 13 15 16 19 19 19 18 17 16 17 15 13 13 13 12 12 11 10 8 7 5 4 3 2
4 4 8 7 6 7 7 2 4 3 5 4 5 6 17 22 23 22 22 20 17 17 14 13 13 11 13 15 15 14 15 15 14 13 14 12 12 11 11 12 11 10 9 7 5 4 2 1 1
6 7 9 12 12 8 5 3 0 6 3 7 11 15 20 20 20 20 20 20 19 18 16 14 14 12 10 8 11 10 10 12 12 12 13 12 10 9 9 9 8 7 7 4 3 2 1 1 2
6 11 11 12 12 7 5 2 1 3 7 10 16 20 20 19 19 20 20 20 18 18 16 15 14 12 10 11 9 9 8 9 9 12 13 10 6 6 7 6 6 5 4 3 3 2 1 1 2
8 11 12 13 12 8 4 4 2 3 5 11 16 18 19 18 15 13 15 17 18 17 17 16 15 13 11 10 8 9 8 9 10 11 13 12 7 5 5 5 6 5 5 4 3 3 2 1 3
7 9 11 10 9 5 2 4 1 5 5 12 16 16 17 17 15 12 14 15 17 17 17 15 15 13 11 10 7 6 8 10 10 11 12 14 11 8 6 4 4 5 5 5 5 4 3 2 3
6 9 12 8 6 5 0 5 4 6 8 13 15 14 13 12 13 14 16 17 18 17 17 15 15 13 12 10 8 7 8 9 8 9 12 13 13 10 7 4 3 4 5 5 4 3 3 2 3
7 6 6 9 6 6 3 7 8 6 10 12 13 13 11 9 11 12 14 15 16 16 16 16 15 13 12 9 8 7 8 8 8 10 11 13 13 12 8 4 3 5 5 4 3 2 2 2 3
4 4 7 11 7 4 3 6 5 7 11 12 12 12 11 9 8 10 12 14 15 16 16 16 14 14 12 10 7 6 7 7 8 10 10 12 13 12 9 5 4 6 4 3 3 3 3 3 3
6 5 8 10 9 5 2 4 5 8 10 12 12 12 12 11 10 11 12 13 13 14 14 15 14 14 12 9 7 6 5 4 6 7 10 12 12 12 10 5 5 6 4 3 3 3 2 3 3
8 9 13 16 12 4 2 4 6 6 8 10 11 12 12 11 9 10 11 12 12 12 13 14 14 13 12 9 8 8 6 6 5 5 10 12 11 11 9 5 4 4 4 4 4 3 3 2 2
11 11 13 13 8 2 0 2 3 5 8 11 13 13 13 11 9 10 11 11 12 13 13 13 13 13 12 10 8 6 6 5 5 4 7 11 11 11 9 6 5 5 5 5 4 3 3 1 2
13 11 10 9 6 5 3 4 3 3 2 4 8 10 12 15 14 13 12 12 12 13 14 14 13 13 11 10 8 7 5 4 4 4 5 6 10 10 9 8 6 5 5 4 4 4 4 2 0
13 14 10 7 3 4 2 1 6 3 1 3 6 8 10 11 12 11 11 11 12 12 12 11 12 12 11 11 11 12 8 7 6 6 5 5 8 9 10 9 7 5 4 5 4 4 3 4 2
13 13 8 4 1 2 4 2 6 3 2 4 6 10 10 11 12 12 12 11 11 11 12 11 11 11 10 11 12 12 8 6 5 6 7 6 5 7 9 9 7 5 4 5 5 4 4 3 3
10 3 5 6 6 2 4 2 5 4 5 3 3 8 10 11 11 10 9 9 9 10 11 11 12 11 11 11 12 12 11 9 9 8 8 6 4 4 6 8 7 6 5 5 5 5 5 4 4
4 3 4 5 4 5 4 2 7 7 5 4 6 7 9 11 11 11 10 10 10 11 11 11 12 11 11 11 11 11 11 11 11 9 9 8 5 4 6 6 5 5 5 5 5 5 4 4 4
6 10 8 6 6 5 4 4 6 7 2 3 5 7 9 11 11 12 12 11 11 12 12 11 12 10 11 11 10 10 10 8 7 8 8 8 7 6 6 6 6 7 7 6 5 4 4 4 4
6 6 10 8 4 1 4 3 5 2 1 3 5 8 9 11 11 11 10 10 10 11 11 12 12 10 10 11 9 9 9 9 8 8 7 6 6 6 7 7 7 6 7 6 6 4 4 4 4
9 9 7 6 5 2 3 3 5 5 5 5 7 8 8 10 10 10 10 10 10 10 10 11 11 11 9 10 10 9 9 9 8 8 8 7 7 6 8 7 7 7 7 6 6 4 4 5 4
2 3 5 6 7 7 3 6 6 9 8 8 8 9 10 11 10 9 9 9 9 9 10 10 10 9 9 9 8 8 8 8 8 8 8 8 7 8 8 8 8 8 7 7 7 6 6 6 5
5 5 7 5 4 6 5 6 4 6 6 6 7 8 9 10 10 10 9 9 9 9 10 10 10 10 10 9 8 8 8 8 8 8 8 8 8 8 9 8 8 8 8 7 8 7 7 7 6
Wind_Direction
206 199 179 55 41 34 290 253 138 90 70 75 87 93 96 96 134 148 136 138 137 142 148 148 146 142 138 135 132 129 125 122 120 118 117 115 115 115 114 113 112 111 111 111 110 110 110 110 111
201 193 125 51 66 14 281 213 128 128 126 110 93 94 88 82 105 114 124 142 140 142 146 148 146 143 140 138 136 134 130 127 125 124 122 120 119 119 118 116 115 114 114 114 113 113 113 112 113
232 199 108 75 108 206 250 272 183 124 128 119 107 87 103 128 125 130 144 143 139 142 145 149 147 144 142 141 139 137 135 132 131 129 127 125 123 121 120 119 118 118 117 116 115 116 116 115 114
200 51 51 69 257 249 234 254 242 119 108 105 110 91 92 140 138 139 141 143 140 142 146 150 147 146 145 144 142 141 139 137 135 133 132 130 127 125 124 122 121 120 119 119 118 118 117 117 116
75 73 38 320 273 274 256 235 199 136 137 120 113 112 75 55 126 137 143 145 143 143 147 150 149 148 148 147 146 144 142 140 138 137 135 132 130 129 128 125 124 123 123 122 121 119 117 116 116
43 69 58 299 297 295 271 221 138 123 125 122 115 117 94 133 135 144 146 147 146 146 147 151 151 151 150 150 148 147 145 144 142 140 138 135 134 132 132 130 129 128 127 127 125 122 117 112 109
132 109 207 245 283 285 262 213 140 134 134 141 131 114 121 150 148 146 145 144 145 146 147 149 152 153 153 152 151 150 148 148 147 144 142 141 140 137 136 134 134 133 133 133 132 127 120 113 109
163 106 275 258 264 283 268 178 136 128 136 136 132 138 159 166 150 144 141 141 143 146 148 147 149 150 151 153 154 153 152 151 150 149 147 146 145 143 141 140 140 141 141 142 141 137 130 121 113
144 89 255 242 245 275 288 102 86 113 125 138 149 158 159 150 145 142 142 142 148 151 152 150 147 147 149 152 157 156 155 155 154 154 153 149 146 146 147 150 150 149 150 151 151 151 147 134 117
142 188 240 234 237 261 276 186 164 116 115 106 94 112 137 147 150 153 156 158 159 159 159 157 154 151 153 157 153 156 156 156 154 156 153 151 153 156 158 161 158 158 157 157 161 171 169 148 103
190 217 251 265 264 261 272 299 123 134 152 173 159 150 151 154 158 161 164 164 164 163 163 162 159 156 157 148 150 155 154 154 157 160 158 158 162 167 162 162 162 161 162 162 179 195 204 177 145
246 261 263 270 276 276 272 275 39 154 192 178 162 154 158 163 167 169 167 166 163 164 164 163 163 161 157 150 158 161 159 162 167 173 171 164 160 161 162 165 170 171 170 177 184 198 246 213 167
256 266 277 277 283 279 292 290 235 225 168 145 149 153 162 167 171 168 166 165 163 165 164 164 164 165 161 157 165 168 167 172 177 177 176 171 162 162 165 172 176 181 183 176 175 178 170 150 138
264 288 298 289 281 277 263 279 307 245 161 137 147 160 168 170 167 161 161 164 164 165 163 165 163 165 162 163 165 166 171 173 172 173 174 171 167 164 160 162 165 171 175 168 161 157 135 124 116
316 318 311 294 283 270 346 313 259 217 154 150 156 161 167 167 164 167 166 162 163 165 162 169 168 164 162 159 165 168 174 172 168 168 167 164 162 159 153 153 155 164 159 147 128 117 102 106 109
340 327 307 295 294 274 157 252 260 190 152 158 161 161 164 166 165 162 157 157 160 161 162 166 170 163 163 162 165 168 170 169 167 163 160 160 159 156 149 148 153 151 136 126 114 104 92 91 112
345 298 288 299 290 274 176 237 250 178 157 161 162 164 163 159 157 158 157 159 161 161 162 164 162 164 166 160 160 158 161 163 163 159 156 158 158 156 149 145 146 140 123 115 127 108 114 118 125
252 273 290 289 293 305 248 230 202 178 164 162 162 162 162 167 172 165 160 159 158 157 159 161 160 162 161 153 149 148 147 157 158 158 158 158 157 153 148 145 143 133 120 116 116 116 103 127 142
248 273 282 283 286 300 244 207 207 190 168 158 160 163 165 169 167 160 158 157 153 155 159 161 161 163 159 157 158 157 160 163 162 162 159 158 156 153 149 145 141 137 138 149 139 119 105 96 112
257 268 276 288 294 329 99 258 221 183 183 174 166 168 167 161 158 162 163 162 165 165 165 165 167 169 168 165 163 156 153 160 164 158 159 160 158 158 160 150 151 146 138 135 131 122 117 89 114
262 253 255 268 307 6 67 354 312 281 193 163 157 162 166 167 167 168 168 170 169 172 173 174 173 170 167 159 147 138 128 127 141 155 164 167 161 161 158 157 152 149 147 152 150 137 133 137 73
260 257 254 271 329 317 64 246 283 274 258 177 165 165 168 167 164 167 168 171 175 176 173 169 171 168 165 160 159 157 162 166 175 169 167 166 162 162 162 158 155 150 149 155 160 146 140 138 137
239 252 248 259 134 358 358 128 286 325 279 226 187 176 172 169 167 168 172 175 173 170 171 168 168 166 166 167 165 165 167 168 157 156 159 165 163 165 165 161 154 151 153 159 152 137 134 138 146
242 272 7 43 68 353 274 174 270 251 233 235 189 175 168 165 164 165 165 161 164 168 173 169 169 172 172 171 169 171 171 166 161 165 168 166 161 166 165 162 157 159 159 162 158 146 140 143 144
247 108 22 349 6 259 261 183 246 254 226 207 197 182 166 163 163 163 163 164 165 172 174 170 171 174 176 174 174 175 173 170 171 171 171 166 166 173 179 167 162 163 169 169 158 152 156 158 153
212 148 162 199 221 262 300 222 257 275 240 196 177 163 162 164 165 166 170 169 171 175 173 168 171 172 172 172 175 175 172 171 172 174 171 173 177 180 176 170 171 172 172 172 161 157 170 168 164
189 189 175 150 174 211 279 284 306 327 68 113 134 147 162 167 167 167 168 170 170 170 171 172 171 170 173 174 173 170 171 171 173 171 168 172 175 178 176 173 176 179 177 171 164 171 182 171 174
180 169 108 125 157 225 274 250 226 221 196 163 157 162 164 159 160 163 166 171 173 171 170 170 171 173 174 172 176 176 173 175 174 170 172 174 176 173 170 174 178 181 180 175 171 172 183 180 189
178 144 129 136 151 155 210 264 229 198 188 177 172 164 162 162 163 162 165 167 170 166 164 167 170 168 171 173 171 168 172 173 173 177 179 178 178 176 178 180 180 181 181 180 179 187 186 190 204
140 160 141 151 212 163 167 260 274 182 181 171 168 162 161 158 160 163 163 163 161 164 167 169 172 174 177 173 166 167 168 170 175 181 182 179 179 181 181 179 182 188 187 184 186 196 196 197 206
Height
1511 1510 1510 1510 1511 1517 1517 1504 1493 1490 1490 1491 1491 1493 1498 1502 1507 1514 1510 1511 1515 1519 1522 1525 1528 1529 1531 1533 1534 1536 1537 1538 1539 1540 1541 1543 1544 1545 1546 1546 1547 1548 1549 1550 1551 1551 1552 1553 1553
1511 1510 1511 1511 1517 1528 1517 1498 1493 1489 1490 1491 1494 1496 1498 1502 1503 1505 1508 1513 1516 1519 1522 1526 1528 1530 1532 1533 1535 1536 1538 1539 1540 1542 1543 1544 1545 1546 1547 1548 1549 1550 1551 1552 1552 1553 1554 1555 1556
1510 1510 1511 1513 1519 1523 1513 1496 1490 1488 1488 1489 1494 1497 1499 1501 1502 1504 1507 1512 1517 1520 1523 1526 1528 1530 1532 1534 1536 1537 1539 1540 1542 1543 1544 1545 1546 1548 1549 1550 1551 1552 1552 1553 1554 1555 1556 1557 1558
1510 1511 1511 1517 1518 1507 1500 1493 1489 1488 1490 1490 1493 1498 1500 1502 1502 1503 1508 1512 1516 1520 1523 1525 1528 1530 1532 1534 1536 1538 1539 1541 1542 1544 1545 1546 1548 1549 1550 1551 1552 1553 1554 1555 1556 1557 1558 1559 1560
1510 1510 1515 1521 1514 1499 1490 1487 1487 1487 1488 1490 1491 1498 1502 1503 1502 1504 1508 1512 1515 1519 1523 1525 1528 1530 1532 1534 1536 1538 1540 1542 1543 1545 1546 1548 1549 1550 1551 1552 1554 1555 1556 1557 1558 1559 1560 1561 1562
1511 1511 1523 1525 1510 1495 1488 1484 1484 1486 1488 1490 1492 1498 1503 1503 1502 1505 1509 1513 1516 1518 1522 1525 1528 1530 1532 1534 1537 1539 1541 1543 1544 1546 1547 1549 1550 1551 1553 1554 1555 1556 1557 1558 1560 1561 1562 1563 1564
1511 1514 1520 1516 1509 1497 1487 1483 1483 1485 1487 1490 1491 1497 1502 1504 1504 1506 1510 1514 1516 1519 1521 1524 1527 1530 1532 1535 1537 1539 1541 1543 1545 1547 1548 1550 1551 1552 1554 1555 1556 1557 1559 1560 1561 1562 1564 1565 1566
1508 1512 1515 1513 1506 1497 1484 1483 1482 1483 1486 1488 1489 1493 1498 1501 1504 1507 1510 1514 1516 1519 1521 1524 1526 1529 1532 1535 1537 1539 1541 1543 1546 1547 1549 1551 1552 1554 1555 1556 1558 1559 1560 1561 1563 1564 1565 1566 1567
1507 1515 1519 1509 1502 1494 1483 1483 1483 1483 1484 1486 1487 1488 1491 1498 1503 1506 1509 1513 1516 1518 1521 1523 1526 1529 1532 1535 1537 1540 1542 1544 1546 1548 1550 1552 1553 1555 1556 1558 1559 1560 1561 1563 1564 1565 1566 1567 1568
1504 1515 1507 1495 1492 1489 1484 1481 1482 1483 1484 1485 1487 1489 1492 1497 1500 1502 1505 1508 1512 1516 1519 1522 1525 1528 1531 1534 1537 1539 1542 1544 1546 1548 1550 1552 1554 1556 1557 1559 1560 1562 1563 1564 1565 1566 1567 1568 1569
1500 1502 1493 1489 1486 1485 1483 1481 1480 1482 1484 1483 1484 1487 1492 1495 1498 1500 1502 1505 1509 1514 1517 1521 1524 1527 1530 1533 1536 1539 1541 1544 1546 1548 1551 1552 1554 1556 1558 1560 1561 1562 1564 1565 1566 1567 1568 1569 1570
1497 1492 1489 1485 1483 1482 1480 1479 1479 1479 1479 1479 1480 1483 1488 1492 1495 1496 1499 1502 1507 1511 1514 1519 1522 1525 1529 1532 1535 1538 1541 1543 1546 1548 1551 1553 1554 1556 1558 1560 1562 1563 1564 1566 1567 1568 1568 1569 1570
1493 1489 1485 1482 1480 1478 1478 1477 1477 1477 1476 1477 1480 1483 1486 1489 1493 1496 1498 1501 1504 1507 1512 1516 1521 1524 1527 1530 1534 1538 1540 1543 1546 1548 1550 1553 1555 1556 1559 1560 1562 1563 1565 1566 1567 1568 1569 1570 1570
1489 1486 1482 1479 1476 1475 1476 1477 1477 1477 1475 1477 1478 1482 1485 1487 1491 1494 1497 1498 1501 1505 1509 1514 1519 1523 1526 1529 1533 1536 1539 1542 1545 1547 1550 1552 1555 1557 1559 1560 1562 1563 1565 1566 1567 1568 1569 1570 1571
1487 1486 1482 1475 1473 1472 1474 1479 1476 1475 1475 1477 1479 1482 1485 1487 1489 1491 1493 1496 1499 1503 1507 1512 1516 1520 1525 1528 1532 1535 1538 1541 1544 1546 1549 1552 1554 1556 1558 1560 1562 1563 1565 1566 1567 1568 1569 1570 1571
1488 1491 1493 1478 1472 1470 1477 1487 1473 1473 1474 1476 1478 1482 1484 1486 1488 1490 1492 1494 1497 1501 1506 1511 1515 1518 1523 1527 1531 1534 1537 1540 1543 1546 1548 1551 1554 1556 1558 1560 1561 1563 1564 1566 1567 1568 1569 1570 1571
1498 1502 1497 1484 1470 1469 1474 1481 1471 1472 1473 1475 1477 1480 1482 1485 1488 1490 1491 1494 1496 1500 1504 1508 1512 1516 1520 1525 1529 1533 1536 1539 1542 1545 1548 1550 1553 1555 1557 1559 1561 1562 1564 1565 1566 1568 1569 1570 1571
1506 1502 1496 1488 1473 1470 1474 1475 1470 1470 1471 1473 1475 1478 1480 1483 1486 1488 1490 1493 1496 1499 1502 1505 1509 1514 1518 1523 1527 1531 1534 1538 1541 1544 1547 1549 1552 1554 1556 1558 1560 1561 1563 1564 1566 1567 1568 1569 1571
1493 1495 1495 1482 1470 1471 1474 1475 1471 1470 1471 1472 1473 1476 1478 1480 1484 1487 1489 1492 1495 1498 1501 1504 1507 1512 1516 1520 1524 1528 1532 1536 1539 1543 1546 1548 1551 1553 1555 1557 1558 1560 1562 1563 1565 1566 1567 1569 1570
1489 1494 1490 1479 1467 1470 1475 1476 1471 1469 1469 1469 1470 1473 1476 1479 1483 1485 1488 1490 1493 1495 1499 1502 1505 1509 1514 1518 1522 1527 1531 1535 1538 1542 1544 1547 1549 1552 1554 1555 1557 1559 1560 1562 1564 1565 1566 1568 1569
1485 1488 1485 1481 1472 1471 1476 1484 1478 1473 1470 1470 1470 1472 1475 1477 1479 1482 1485 1488 1491 1494 1497 1499 1503 1507 1512 1516 1521 1526 1530 1534 1537 1540 1542 1545 1548 1550 1552 1554 1556 1557 1559 1561 1562 1564 1565 1567 1568
1487 1473 1473 1474 1483 1492 1484 1503 1486 1477 1474 1471 1471 1472 1474 1477 1479 1481 1484 1487 1489 1492 1495 1498 1501 1505 1509 1514 1518 1522 1526 1530 1533 1537 1540 1544 1546 1549 1551 1553 1555 1557 1558 1559 1561 1562 1564 1566 1567
1473 1464 1467 1471 1481 1492 1490 1499 1494 1479 1478 1473 1470 1471 1473 1475 1478 1480 1483 1485 1488 1491 1494 1497 1500 1503 1507 1512 1516 1520 1525 1528 1532 1535 1539 1542 1545 1547 1549 1552 1553 1555 1557 1558 1560 1561 1563 1564 1566
1460 1464 1471 1480 1492 1508 1496 1499 1498 1485 1477 1472 1470 1471 1472 1475 1477 1480 1483 1486 1488 1490 1493 1495 1497 1501 1506 1510 1514 1518 1522 1526 1530 1533 1536 1539 1542 1545 1548 1550 1552 1554 1555 1557 1558 1560 1561 1563 1565
1460 1482 1505 1506 1516 1513 1494 1496 1494 1473 1467 1468 1469 1470 1471 1474 1477 1479 1482 1485 1487 1489 1492 1494 1496 1499 1503 1507 1511 1515 1520 1524 1527 1531 1534 1537 1540 1543 1546 1548 1550 1552 1553 1555 1556 1558 1560 1561 1563
1462 1477 1504 1515 1518 1511 1495 1496 1483 1466 1464 1464 1466 1468 1471 1474 1476 1478 1481 1483 1485 1487 1490 1492 1495 1498 1501 1505 1509 1513 1517 1522 1525 1529 1532 1535 1538 1541 1544 1546 1548 1550 1551 1553 1554 1556 1558 1559 1561
1460 1469 1472 1493 1500 1508 1503 1489 1476 1465 1464 1464 1466 1469 1471 1474 1475 1478 1480 1483 1485 1486 1488 1491 1494 1497 1500 1504 1508 1511 1515 1519 1523 1526 1530 1533 1536 1539 1542 1544 1546 1548 1549 1551 1552 1554 1555 1557 1559
1446 1455 1476 1492 1507 1513 1503 1495 1489 1472 1468 1466 1467 1469 1471 1474 1475 1478 1479 1481 1484 1486 1488 1491 1493 1496 1499 1502 1506 1509 1513 1517 1521 1524 1527 1531 1534 1537 1539 1541 1543 1545 1547 1549 1550 1552 1554 1555 1556
1450 1456 1468 1485 1491 1506 1511 1499 1468 1466 1463 1464 1465 1467 1469 1472 1474 1477 1479 1481 1483 1485 1487 1490 1493 1496 1498 1501 1504 1507 1511 1515 1519 1522 1525 1528 1532 1534 1537 1539 1541 1543 1544 1546 1548 1550 1551 1553 1554
1444 1454 1466 1484 1489 1493 1500 1494 1459 1459 1460 1461 1464 1466 1468 1471 1474 1477 1479 1481 1483 1485 1487 1489 1492 1494 1497 1500 1503 1506 1509 1513 1516 1519 1523 1526 1529 1532 1534 1536 1538 1540 1542 1543 1545 1547 1549 1551 1552